ATLAS 5 CENTAUR R/B, 40731

Orbit data source: Space-Track

ATLAS 5 CENTAUR R/B, 40731 is space debris in MEO originally from a launch on Wed, 15 Jul 2015 UTC launched from the Air Force Eastern Test Range (AFETR). Debris objects in space refer to the collection of defunct objects orbiting the Earth. Examples of debris include non-operational satellites, rocket bodies, and fragments generated from explosions, collisions, or faulty payload assembly.

Loading next visibility...
Identifier
40731, 2015-033B
Orbit
MEO
Country
Flag of USUS
Related business
Flag of USUnited Launch Alliance/Lockheed Martin (US)
Manufacturer
LMSS Denver
Mission
Spacecraft
Bus & Motor
CENTAUR SEC, RL10C-1
Mass
~2,020 kg wet, 2,020 kg dry
Launch date (UTC)
2015-07-15 (11 years ago)
Launch vehicle
Unknown
Launch site
Air Force Eastern Test Range (AFETR)
Object type
Payload
Rocket body
Debris
Shape & HBR
Cyl + 1 Nozzle, 5.8 m
Radar Cross Section
32.260 m², Large (>1 m²)

Expand to show TLE details & history
Last TLE update: 4 days ago

TLE from 4 days ago
0 ATLAS 5 CENTAUR R/B
1 40731U 15033B   26160.65249599 -.00000050  00000-0  00000-0 0  9997
2 40731  54.5684 284.3947 0237878  11.7421 348.7982  1.90866833 76005
Epoch: 2026-06-09T15:39Z
TLE epoch observation values (Epoch: 2026-06-09T15:39:35.653Z)
Latitude
-0°
Longitude
151.45643°
Altitude
20,434.717 km
Speed
3.9 km/s
True Right ascension
18h 57m 30s
True Declination
0° 00' 00"
Sunlit
Object was in daylight at epoch
Visualization orbit readout
Latitude
Unknown
Longitude
Unknown
Altitude
Unknown
Speed
Unknown
Apparent Right ascension
Unknown
Apparent Declination
Unknown
Sunlit
N/A
Visualization observer readout
Local Sidereal Time
19:51:10
Azimuth
Unknown
Elevation
Unknown
Doppler factor
Unknown
Orbital elements
Apogee altitude
21,727.398 km
Perigee altitude
20,421.328 km
Semi-major axis
27,452.5 km
Eccentricity
0.02379
Inclination
54.5684°
RAAN
284.3947°
Arg. of periapsis
11.7421°
True anomaly
348.25277°
Mean anomaly
348.7982°
Eccentric anomaly
348.52711°
Mean motion
0.47717 °/min
Orbital period
754.45 mins
BSTAR
0
Loading maneuver chart data...
Computing Atmospheric mass density...
Loading historical data...
Loading historical data...
Loading historical data...
Loading historical data...
Loading historical data...
Loading historical data...
Loading historical data...
Other satellites on launch #33 in the year 2015 (2015-07-15 UTC)

Documentation

Showing up to 5 results
|